Location: Asheville, NC
(35.6000°N, 82.5500°W)
Time: 14:52:45
(UTC-05:00)

Hubble Space Telescope - Pass Details

Date: 09 January 2018
Orbit: 537 x 541 km, 28.5° (Epoch: 17 January)

Event Time Altitude Azimuth Distance (km) Brightness Sun altitude
Exits shadow 05:54:40 25° 206° (SSW) 1,097 2.2 -21.0°
Maximum altitude 05:55:23 27° 188° (S) 1,055 2.3 -20.8°
Drops below altitude 10° 05:58:53 10° 130° (SE) 1,782 4.3 -20.2°
Sets 06:01:23 0° 118° (ESE) 2,671 5.8 -19.7°
